Cloud_Cover
0 0 0 0 0 0 0 0 0 0 0 0 0 0 0 0 0 0 0 0 0 0 0 0 0 0 4 5 32 5 81 5 10
0 0 0 0 0 0 0 0 0 0 0 0 0 0 0 0 1 0 0 0 1 0 4 0 0 0 0 0 3 5 5 33 5
0 1 0 2 0 0 0 0 0 0 0 0 0 0 0 0 0 0 1 35 20 1 4 3 0 3 0 0 5 5 5 5 3
0 0 0 0 0 0 0 0 0 0 0 0 0 0 0 5 4 41 98 7 17 81 70 74 13 9 10 5 61 5 5 5 5
0 0 0 0 0 0 0 0 0 0 0 0 0 0 0 3 2 26 89 98 5 100 31 100 100 100 100 100 6 5 5 3 5
0 0 0 0 0 0 0 0 0 0 0 0 0 0 0 0 5 94 18 94 13 55 100 100 100 100 100 100 46 93 66 62 5
0 0 0 0 0 0 0 0 0 0 0 0 0 0 0 0 0 52 90 12 74 100 100 100 100 100 100 100 100 100 72 99 62
0 0 0 0 0 0 0 0 0 0 0 5 5 4 5 5 0 0 2 23 19 100 100 100 100 100 100 100 100 100 97 100 100
0 0 0 0 0 0 0 0 0 0 0 5 0 1 4 0 0 0 0 16 6 100 100 100 100 100 100 100 100 100 100 100 98
0 0 0 0 0 0 0 0 0 0 0 0 0 0 4 0 2 17 13 18 6 100 100 100 100 100 100 100 100 100 100 100 96
0 0 0 0 0 0 0 0 0 0 0 0 0 0 0 4 39 54 53 36 13 85 100 100 100 100 100 100 100 98 100 100 100
0 0 0 2 0 0 0 0 0 0 2 5 50 4 1 66 46 62 79 85 66 99 100 100 100 100 100 100 100 98 100 100 91
3 3 5 40 3 0 0 0 0 0 79 94 15 5 5 25 56 66 100 100 100 97 83 100 100 100 100 100 100 100 100 100 100
41 12 28 75 6 9 3 0 0 0 0 4 2 55 25 63 100 57 87 100 100 100 100 100 97 100 100 100 100 100 100 100 100
55 98 94 82 100 10 47 4 3 0 0 1 23 100 69 100 100 100 78 89 100 97 100 100 100 100 100 100 100 100 100 100 100
39 94 40 100 97 100 91 58 5 5 5 20 60 46 100 100 100 100 100 100 83 85 100 100 100 100 100 100 100 100 100 100 100
10 99 100 83 2 5 5 4 5 8 98 100 98 99 100 100 100 96 72 43 12 69 99 100 100 100 100 100 100 100 99 99 100
32 4 16 7 35 48 5 45 4 5 35 39 24 51 80 67 11 16 26 43 25 84 100 100 100 100 100 100 100 100 100 100 72
78 100 91 100 52 81 19 5 27 43 50 54 62 76 56 27 64 60 83 56 45 92 100 100 100 100 100 26 53 55 61 29 52
100 100 100 100 43 5 13 21 21 39 56 68 56 39 24 0 1 6 73 7 2 5 33 51 47 42 5 5 62 11 5 5 10